CW4221 Weather Reports


Display with metric or nautical units.
time (UTC)temp
F
wind
direction
speed
MPH
gust
MPH
rain 1hr
in
rain 24hr
in
rain mn
in
humidity
%
barometer
mb
20260510222333 67 5 0.0 0.0 0.00 0.00 0.00 47 1020.0
20260510221828 67 22 0.0 0.0 0.00 0.00 0.00 47 1020.0
20260510221344 67 21 0.0 0.0 0.00 0.00 0.00 48 1019.9
20260510220818 68 11 0.0 0.0 0.00 0.00 0.00 48 1019.9
20260510220314 68 15 0.0 1.0 0.00 0.00 0.00 48 1019.9
20260510215811 68 5 0.0 1.0 0.00 0.00 0.00 47 1019.7
20260510215331 69 355 0.0 1.0 0.00 0.00 0.00 47 1019.7
20260510214827 69 12 0.0 1.0 0.00 0.00 0.00 50 1019.7
20260510214323 69 15 0.0 3.0 0.00 0.00 0.00 48 1019.6
20260510213820 69 355 0.0 3.0 0.00 0.00 0.00 47 1019.6
20260510213316 70 349 0.0 3.0 0.00 0.00 0.00 48 1019.6
20260510212832 70 16 0.0 5.0 0.00 0.00 0.00 48 1019.5
20260510212327 70 5 0.0 5.0 0.00 0.00 0.00 45 1019.4
20260510211813 70 9 0.0 12.0 0.00 0.00 0.00 47 1019.4
20260510210816 70 15 0.0 12.0 0.00 0.00 0.00 48 1018.9
20260510210312 70 355 3.0 12.0 0.00 0.00 0.00 46 1019.0
20260510205826 70 351 0.0 4.0 0.00 0.00 0.00 48 1019.1
20260510205322 70 355 0.0 11.0 0.00 0.00 0.00 47 1019.1
20260510204817 71 17 1.0 11.0 0.00 0.00 0.00 46 1019.0
20260510204313 71 11 0.0 2.0 0.00 0.00 0.00 47 1019.1
20260510203830 71 21 0.0 1.0 0.00 0.00 0.00 48 1019.1
20260510203309 71 15 0.0 1.0 0.00 0.00 0.00 47 1019.1
20260510202825 71 348 0.0 10.0 0.00 0.00 0.00 43 1019.2
20260510202342 72 355 1.0 10.0 0.00 0.00 0.00 44 1019.2
20260510201817 72 31 0.0 10.0 0.00 0.00 0.00 44 1019.3
20260510201333 72 355 0.0 4.0 0.00 0.00 0.00 44 1019.3
20260510200819 72 20 0.0 10.0 0.00 0.00 0.00 45 1019.5
20260510183824 71 5 0.0 9.0 0.00 0.00 0.00 47 1019.7
20260510183320 71 355 0.0 9.0 0.00 0.00 0.00 49 1019.7
20260510182816 71 5 0.0 14.0 0.00 0.00 0.00 48 1019.5
20260510182312 70 11 1.0 14.0 0.00 0.00 0.00 47 1019.3
20260510181829 70 23 0.0 11.0 0.00 0.00 0.00 49 1019.3
20260510181324 70 5 0.0 4.0 0.00 0.00 0.00 47 1019.5
20260510180820 70 16 0.0 4.0 0.00 0.00 0.00 51 1019.4
20260510180321 70 24 0.0 4.0 0.00 0.00 0.00 49 1019.3
20260510175816 70 355 0.0 2.0 0.00 0.00 0.00 48 1019.4
20260510175312 70 26 0.0 5.0 0.00 0.00 0.00 48 1019.3
20260510174828 70 20 0.0 8.0 0.00 0.00 0.00 51 1019.3
20260510174324 70 18 1.0 8.0 0.00 0.00 0.00 46 1019.2
20260510173820 70 17 1.0 8.0 0.00 0.00 0.00 47 1019.2
20260510173316 69 24 0.0 9.0 0.00 0.00 0.00 48 1019.4
20260510172816 69 24 0.0 9.0 0.00 0.00 0.00 48 1019.2
20260510172334 69 5 0.0 10.0 0.00 0.00 0.00 49 1019.2
20260510171809 69 25 0.0 10.0 0.00 0.00 0.00 48 1019.2
20260510171345 69 17 0.0 9.0 0.00 0.00 0.00 47 1019.2
20260510170820 69 5 0.0 6.0 0.00 0.00 0.00 51 1019.1
20260510170316 69 12 0.0 6.0 0.00 0.00 0.00 50 1019.1
20260510165813 68 17 0.0 2.0 0.00 0.00 0.00 52 1019.1
20260510165309 68 16 0.0 6.0 0.00 0.00 0.00 50 1019.0
20260510164845 68 17 0.0 6.0 0.00 0.00 0.00 50 1019.0
20260510164345 68 40 0.0 4.0 0.00 0.00 0.00 53 1019.1
20260510163820 68 10 0.0 4.0 0.00 0.00 0.00 52 1019.1
20260510163318 67 345 0.0 5.0 0.00 0.00 0.00 55 1019.1
20260510162814 67 30 0.0 5.0 0.00 0.00 0.00 56 1019.1
20260510162310 67 26 0.0 5.0 0.00 0.00 0.00 55 1018.9
20260510161827 67 24 0.0 1.0 0.00 0.00 0.00 59 1018.8
20260510161323 66 355 0.0 5.0 0.00 0.00 0.00 59 1018.7
20260510160823 66 10 0.0 9.0 0.00 0.00 0.00 58 1018.7
20260510160340 66 17 1.0 13.0 0.00 0.00 0.00 56 1018.6
20260510155814 67 355 2.0 13.0 0.00 0.00 0.00 57 1018.6
20260510155330 66 27 1.0 9.0 0.00 0.00 0.00 58 1018.5
20260510154826 66 5 0.0 9.0 0.00 0.00 0.00 60 1018.5
20260510154320 65 5 0.0 5.0 0.00 0.00 0.00 59 1018.5
20260510153816 65 360 0.0 5.0 0.00 0.00 0.00 61 1018.4
20260510153312 65 24 0.0 10.0 0.00 0.00 0.00 61 1018.3
20260510152849 65 5 0.0 10.0 0.00 0.00 0.00 62 1018.3
20260510152328 65 20 0.0 0.0 0.00 0.00 0.00 62 1018.4
20260510151824 65 14 0.0 6.0 0.00 0.00 0.00 62 1018.4
20260510151320 65 16 0.0 6.0 0.00 0.00 0.00 63 1018.6
20260510150817 65 19 0.0 4.0 0.00 0.00 0.00 63 1018.6
20260510150314 65 21 0.0 2.0 0.00 0.00 0.00 66 1018.7
20260510145848 65 22 0.0 6.0 0.00 0.00 0.00 65 1018.8
20260510145324 65 36 0.0 6.0 0.00 0.00 0.00 64 1018.7
20260510144821 65 15 0.0 0.0 0.00 0.00 0.00 67 1018.7
20260510144320 65 23 0.0 0.0 0.00 0.00 0.00 66 1018.6
20260510143837 65 15 0.0 2.0 0.00 0.00 0.00 67 1018.7
20260510143312 64 19 0.0 2.0 0.00 0.00 0.00 68 1018.6
20260510142809 64 26 0.0 1.0 0.00 0.00 0.00 67 1018.5
20260510142326 64 24 0.0 0.0 0.00 0.00 0.00 70 1018.4
20260510141823 64 34 0.0 4.0 0.00 0.00 0.00 69 1018.2
20260510141319 64 46 0.0 4.0 0.00 0.00 0.00 71 1018.2
20260510140815 64 17 0.0 1.0 0.00 0.00 0.00 72 1018.2
20260510140315 64 20 0.0 3.0 0.00 0.00 0.00 70 1018.1
20260510135831 64 12 0.0 3.0 0.00 0.00 0.00 71 1018.1
20260510135327 64 13 0.0 1.0 0.00 0.00 0.00 73 1018.0
20260510134823 64 22 0.0 2.0 0.00 0.00 0.00 74 1017.9
20260510134340 64 9 0.0 3.0 0.00 0.00 0.00 75 1017.7
20260510133815 63 10 0.0 9.0 0.00 0.00 0.00 74 1017.8
20260510133312 64 17 0.0 9.0 0.00 0.00 0.00 75 1017.6
20260510132828 63 44 0.0 4.0 0.00 0.00 0.00 75 1017.5
20260510132328 63 5 0.0 4.0 0.00 0.00 0.00 76 1017.5
20260510131824 63 11 0.0 0.0 0.00 0.00 0.00 76 1017.4
20260510131321 62 19 0.0 1.0 0.00 0.00 0.00 76 1017.3
20260510130817 62 15 0.0 1.0 0.00 0.00 0.00 77 1017.1
20260510130313 61 10 0.0 1.0 0.00 0.00 0.00 79 1017.0
20260510125829 61 15 0.0 1.0 0.00 0.00 0.00 80 1017.0
20260510125326 61 355 0.0 0.0 0.00 0.00 0.00 82 1016.9
20260510124826 60 15 0.0 3.0 0.00 0.00 0.00 82 1016.9
20260510124321 60 17 0.0 3.0 0.00 0.00 0.00 82 1017.0
20260510123817 59 20 0.0 2.0 0.00 0.00 0.00 83 1016.8
20260510123314 59 18 0.0 2.0 0.00 0.00 0.00 83 1016.7
20260510122811 59 22 0.0 1.0 0.00 0.00 0.00 83 1016.5
20260510122326 59 24 0.0 8.0 0.00 0.00 0.00 83 1016.4
20260510121823 59 18 0.0 8.0 0.00 0.00 0.00 83 1016.3
20260510121324 59 19 0.0 0.0 0.00 0.00 0.00 83 1016.2
20260510120820 58 22 0.0 1.0 0.00 0.00 0.00 84 1016.3
20260510120316 58 17 0.0 1.0 0.00 0.00 0.00 84 1016.2
20260510115812 58 23 0.0 0.0 0.00 0.00 0.00 85 1016.3
20260510115328 58 13 0.0 0.0 0.00 0.00 0.00 85 1016.2
20260510114845 58 24 0.0 0.0 0.00 0.00 0.00 85 1016.2
20260510114320 58 22 0.0 0.0 0.00 0.00 0.00 85 1016.0
20260510113816 58 25 0.0 0.0 0.00 0.00 0.00 85 1015.9
20260510113336 58 22 0.0 0.0 0.00 0.00 0.00 85 1015.9
20260510112811 58 26 0.0 0.0 0.00 0.00 0.00 85 1015.8
20260510112347 58 26 0.0 0.0 0.00 0.00 0.00 84 1015.5
20260510111822 58 26 0.0 0.0 0.00 0.00 0.00 84 1015.3
20260510111320 58 26 0.0 0.0 0.00 0.00 0.00 84 1015.2
20260510110817 58 26 0.0 0.0 0.00 0.00 0.00 84 1015.2
20260510110333 58 23 0.0 0.0 0.00 0.00 0.00 84 1015.2
20260510105828 58 26 0.0 0.0 0.00 0.00 0.00 84 1015.1
20260510105323 58 26 0.0 0.0 0.00 0.00 0.00 84 1015.1
20260510104823 58 26 0.0 0.0 0.00 0.00 0.00 85 1015.2
20260510104318 57 26 0.0 0.0 0.00 0.00 0.00 86 1015.2
20260510103814 56 22 0.0 0.0 0.00 0.00 0.00 88 1015.4
20260510103310 56 344 0.0 0.0 0.00 0.00 0.00 89 1015.4
20260510102827 55 340 0.0 0.0 0.00 0.00 0.00 90 1015.3
20260510102344 55 340 0.0 0.0 0.00 0.00 0.00 90 1015.2
20260510101819 55 340 0.0 0.0 0.00 0.00 0.00 90 1015.1
20260510101315 55 340 0.0 0.0 0.00 0.00 0.00 90 1014.8
20260510100816 55 340 0.0 0.0 0.00 0.00 0.00 89 1014.7
20260510100332 55 340 0.0 0.0 0.00 0.00 0.00 89 1014.7
20260510095827 55 340 0.0 0.0 0.00 0.00 0.00 89 1014.5
20260510095323 55 340 0.0 0.0 0.00 0.00 0.00 89 1014.5
20260510094819 55 340 0.0 0.0 0.00 0.00 0.00 89 1014.4
20260510094316 55 340 0.0 0.0 0.00 0.00 0.00 89 1014.4
20260510093811 55 340 0.0 0.0 0.00 0.00 0.00 89 1014.4
20260510093312 55 340 0.0 0.0 0.00 0.00 0.00 89 1014.4
20260510092809 55 340 0.0 0.0 0.00 0.00 0.00 88 1014.3
20260510092326 55 340 0.0 0.0 0.00 0.00 0.00 88 1014.3
20260510091821 55 340 0.0 0.0 0.00 0.00 0.00 88 1014.2
20260510091318 55 340 0.0 0.0 0.00 0.00 0.00 88 1014.2
20260510090835 55 340 0.0 0.0 0.00 0.00 0.00 89 1014.2
20260510090309 55 340 0.0 0.0 0.00 0.00 0.00 89 1014.2
20260510085825 54 340 0.0 0.0 0.00 0.00 0.00 89 1014.1
20260510085321 54 340 0.0 0.0 0.00 0.00 0.00 89 1014.0
20260510084821 54 340 0.0 0.0 0.00 0.00 0.00 89 1014.0
20260510084317 55 340 0.0 0.0 0.00 0.00 0.00 89 1013.8
20260510083813 54 340 0.0 0.0 0.00 0.00 0.00 89 1013.7
20260510083309 55 340 0.0 0.0 0.00 0.00 0.00 89 1013.7
20260510082826 54 340 0.0 0.0 0.00 0.00 0.00 89 1013.6
20260510082321 55 340 0.0 0.0 0.00 0.00 0.00 88 1013.5
20260510081817 55 340 0.0 0.0 0.00 0.00 0.00 88 1013.7
20260510081317 55 340 0.0 0.0 0.00 0.00 0.00 88 1013.8
20260510080813 55 340 0.0 0.0 0.00 0.00 0.00 88 1013.9
20260510080309 55 340 0.0 0.0 0.00 0.00 0.00 88 1014.2
20260510075824 55 340 0.0 0.0 0.00 0.00 0.00 88 1014.1
20260510075321 55 340 0.0 0.0 0.00 0.00 0.00 88 1014.0
20260510074817 55 340 0.0 0.0 0.00 0.00 0.00 87 1013.8
20260510074314 55 340 0.0 0.0 0.00 0.00 0.00 87 1013.8
20260510073810 55 340 0.0 0.0 0.00 0.00 0.00 87 1013.8
20260510073310 55 340 0.0 0.0 0.00 0.00 0.00 88 1013.7
20260510072827 54 340 0.0 0.0 0.00 0.00 0.00 87 1013.7
20260510072324 54 340 0.0 0.0 0.00 0.00 0.00 87 1013.7
20260510071820 55 340 0.0 0.0 0.00 0.00 0.00 87 1013.7
20260510071336 55 340 0.0 0.0 0.00 0.00 0.00 87 1013.7
20260510070810 54 340 0.0 0.0 0.00 0.00 0.00 86 1013.7
20260510070327 55 340 0.0 0.0 0.00 0.00 0.00 85 1013.6
20260510065822 55 340 0.0 0.0 0.00 0.00 0.00 84 1013.6
20260510065323 56 340 0.0 0.0 0.00 0.00 0.00 83 1013.6
20260510064839 56 340 0.0 0.0 0.00 0.00 0.00 84 1013.5
20260510064314 56 340 0.0 0.0 0.00 0.00 0.00 83 1013.5
20260510063832 56 340 0.0 0.0 0.00 0.00 0.00 82 1013.5
20260510063327 57 340 0.0 0.0 0.00 0.00 0.00 81 1013.7
20260510062823 57 340 0.0 0.0 0.00 0.00 0.00 80 1013.7
20260510062319 58 340 0.0 0.0 0.00 0.00 0.00 80 1013.7
20260510061836 58 340 0.0 0.0 0.00 0.00 0.00 80 1013.7
20260510061315 58 340 0.0 0.0 0.00 0.00 0.00 79 1013.8
20260510060812 59 340 0.0 0.0 0.00 0.00 0.00 76 1013.8
20260510060309 61 340 0.0 0.0 0.00 0.00 0.00 75 1013.8
20260510055844 61 340 0.0 0.0 0.00 0.00 0.00 75 1013.9
20260510055319 60 340 0.0 0.0 0.00 0.00 0.00 77 1013.9
20260510054816 58 340 0.0 6.0 0.00 0.00 0.00 83 1013.9
20260510054312 56 344 0.0 6.0 0.00 0.00 0.00 89 1013.9
20260510053828 55 344 0.0 1.0 0.00 0.00 0.00 88 1013.8
20260510053345 55 187 0.0 0.0 0.00 0.00 0.00 88 1013.5
20260510052823 55 187 0.0 0.0 0.00 0.00 0.00 87 1013.4
20260510052340 55 187 0.0 0.0 0.00 0.00 0.00 87 1013.4
20260510051816 55 187 0.0 0.0 0.00 0.00 0.00 87 1013.4
20260510051312 55 187 0.0 0.0 0.00 0.00 0.00 86 1013.2
20260510050810 55 187 0.0 0.0 0.00 0.00 0.00 86 1013.2
20260510050346 56 187 0.0 0.0 0.00 0.00 0.00 85 1013.0
20260510045820 56 187 0.0 0.0 0.00 0.00 0.00 85 1013.0
20260510045317 57 187 0.0 0.0 0.00 0.00 0.00 83 1013.1
20260510044818 58 187 0.0 0.0 0.00 0.00 0.00 84 1013.0
20260510044314 58 187 0.0 0.0 0.00 0.00 0.00 83 1013.1
20260510043831 58 187 0.0 0.0 0.00 0.00 0.00 83 1013.1
20260510043326 58 187 0.0 0.0 0.00 0.00 0.00 83 1013.1
20260510042823 58 187 0.0 0.0 0.00 0.00 0.00 83 1013.1
20260510042318 58 187 0.0 0.0 0.00 0.00 0.00 83 1013.0
20260510041814 58 187 0.0 0.0 0.00 0.00 0.00 83 1012.9
20260510041310 58 187 0.0 0.0 0.00 0.00 0.00 82 1012.9
20260510040830 58 187 0.0 0.0 0.00 0.00 0.00 82 1012.8
20260510040326 58 187 0.0 0.0 0.00 0.00 0.00 82 1012.8
20260510035822 58 96 0.0 1.0 0.00 0.00 0.00 84 1012.6
20260510035319 57 95 0.0 1.0 0.00 0.00 0.00 84 1012.6
20260510034815 57 65 0.0 0.0 0.00 0.00 0.00 83 1012.5
20260510034311 57 65 0.0 0.0 0.00 0.00 0.00 83 1012.6
20260510033849 57 65 0.0 0.0 0.00 0.00 0.00 83 1012.6
20260510033325 57 65 0.0 0.0 0.00 0.00 0.00 82 1012.6
20260510032826 57 65 0.0 0.0 0.00 0.00 0.00 82 1012.6
20260510032342 57 65 0.0 0.0 0.00 0.00 0.00 82 1012.6
20260510031817 57 65 0.0 0.0 0.00 0.00 0.00 82 1012.5
20260510031312 58 65 0.0 0.0 0.00 0.00 0.00 81 1012.5
20260510030829 58 65 0.0 0.0 0.00 0.00 0.00 81 1012.5
20260510030345 59 65 0.0 0.0 0.00 0.00 0.00 81 1012.4
20260510025840 59 65 0.0 0.0 0.00 0.00 0.00 81 1012.3
20260510025315 59 65 0.0 0.0 0.00 0.00 0.00 80 1012.2
20260510024832 60 65 0.0 0.0 0.00 0.00 0.00 80 1012.1
20260510024327 60 65 0.0 0.0 0.00 0.00 0.00 81 1012.0
20260510023824 60 65 0.0 0.0 0.00 0.00 0.00 80 1011.8
20260510023324 60 65 0.0 0.0 0.00 0.00 0.00 79 1011.7
20260510022819 60 65 0.0 0.0 0.00 0.00 0.00 78 1011.6
20260510022315 60 65 0.0 0.0 0.00 0.00 0.00 76 1011.4
20260510021811 61 65 0.0 0.0 0.00 0.00 0.00 76 1011.5
20260510021348 62 65 0.0 0.0 0.00 0.00 0.00 74 1011.4
20260510020823 61 65 0.0 0.0 0.00 0.00 0.00 75 1011.3
20260510020319 61 65 0.0 0.0 0.00 0.00 0.00 75 1011.2
20260510015813 62 65 0.0 0.0 0.00 0.00 0.00 74 1011.0
20260510015309 63 65 0.0 0.0 0.00 0.00 0.00 70 1010.9
20260510014809 63 65 0.0 0.0 0.00 0.00 0.00 71 1010.8
20260510014325 64 65 0.0 0.0 0.00 0.00 0.00 70 1010.7
20260510013823 65 65 0.0 0.0 0.00 0.00 0.00 68 1010.7
20260510013319 65 65 0.0 0.0 0.00 0.00 0.00 68 1010.6
20260510012815 66 65 0.0 0.0 0.00 0.00 0.00 66 1010.6
20260510012332 67 65 0.0 0.0 0.00 0.00 0.00 65 1010.5
20260510011828 67 65 0.0 0.0 0.00 0.00 0.00 63 1010.5
20260510011345 68 65 0.0 0.0 0.00 0.00 0.00 61 1010.4
20260510010824 68 65 0.0 0.0 0.00 0.00 0.00 60 1010.4
20260510010320 69 51 0.0 0.0 0.00 0.00 0.00 60 1010.3
20260510005815 71 51 0.0 0.0 0.00 0.00 0.00 60 1010.2
20260510005312 73 51 0.0 0.0 0.00 0.00 0.00 52 1010.2
20260510004829 73 51 0.0 0.0 0.00 0.00 0.00 52 1010.1
20260510004325 73 51 0.0 0.0 0.00 0.00 0.00 52 1010.1
20260510003820 73 51 0.0 0.0 0.00 0.00 0.00 56 1010.1
20260510003320 74 51 0.0 0.0 0.00 0.00 0.00 54 1010.0
20260510002816 76 50 0.0 0.0 0.00 0.00 0.00 51 1010.0
20260510002312 77 57 0.0 0.0 0.00 0.00 0.00 45 1010.0
20260510001829 77 57 0.0 0.0 0.00 0.00 0.00 41 1010.0
20260510001344 77 57 0.0 0.0 0.00 0.00 0.00 46 1010.0
20260510000819 77 259 0.0 0.0 0.00 0.00 0.00 40 1010.0
20260510000315 77 260 0.0 0.0 0.00 0.00 0.00 39 1010.0
20260509235810 78 260 0.0 0.0 0.00 0.00 0.00 38 1010.0
20260509235346 79 260 0.0 0.0 0.00 0.00 0.00 37 1010.0
20260509234825 80 259 0.0 0.0 0.00 0.00 0.00 38 1010.0
20260509234321 80 213 0.0 0.0 0.00 0.00 0.00 38 1010.0
20260509233816 80 197 0.0 0.0 0.00 0.00 0.00 36 1010.0
20260509233312 80 240 0.0 0.0 0.00 0.00 0.00 38 1009.9
20260509232830 80 275 0.0 0.0 0.00 0.00 0.00 37 1010.0
20260509232326 80 253 0.0 1.0 0.00 0.00 0.00 37 1010.0
20260509231842 80 228 0.0 1.0 0.00 0.00 0.00 38 1010.0
20260509231317 81 214 0.0 0.0 0.00 0.00 0.00 35 1010.0
20260509230813 81 214 0.0 0.0 0.00 0.00 0.00 37 1010.0
20260509230314 81 230 0.0 0.0 0.00 0.00 0.00 31 1010.0
20260509225829 81 255 0.0 0.0 0.00 0.00 0.00 34 1010.0
20260509225326 81 254 0.0 0.0 0.00 0.00 0.00 39 1010.0
20260509224841 81 254 0.0 0.0 0.00 0.00 0.00 37 1010.0
20260509224338 81 300 0.0 0.0 0.00 0.00 0.00 34 1010.0
20260509223813 81 300 0.0 0.0 0.00 0.00 0.00 37 1010.0
20260509223329 81 263 0.0 0.0 0.00 0.00 0.00 34 1010.0
20260509222826 81 263 0.0 0.0 0.00 0.00 0.00 32 1010.1